TimeEDT,TemperatureF,Dew PointF,Humidity,Sea Level PressureIn,VisibilityMPH,Wind Direction,Wind SpeedMPH,Gust SpeedMPH,PrecipitationIn,Events,Conditions,WindDirDegrees,DateUTC
12:53 AM,35.1,26.1,70,30.25,10.0,WNW,8.1,-,N/A,,Clear,290,2012-10-13 04:53:00
1:53 AM,34.0,25.0,70,30.27,10.0,WNW,6.9,-,N/A,,Clear,290,2012-10-13 05:53:00
3:53 AM,33.1,25.0,72,30.28,10.0,Variable,6.9,-,N/A,,Clear,0,2012-10-13 07:53:00
4:53 AM,33.1,24.1,70,30.29,10.0,West,8.1,-,N/A,,Clear,270,2012-10-13 08:53:00
5:53 AM,33.1,24.1,70,30.30,10.0,West,6.9,-,N/A,,Clear,280,2012-10-13 09:53:00
6:53 AM,32.0,24.1,73,30.32,10.0,WNW,6.9,-,N/A,,Clear,300,2012-10-13 10:53:00
7:53 AM,34.0,24.1,67,30.34,10.0,West,8.1,-,N/A,,Clear,280,2012-10-13 11:53:00
8:53 AM,36.0,23.0,59,30.35,10.0,West,10.4,18.4,N/A,,Clear,280,2012-10-13 12:53:00
9:53 AM,39.0,21.0,49,30.35,10.0,WNW,11.5,18.4,N/A,,Partly Cloudy,290,2012-10-13 13:53:00
10:53 AM,42.1,19.9,41,30.34,10.0,WNW,13.8,21.9,N/A,,Clear,290,2012-10-13 14:53:00
11:53 AM,41.0,19.0,41,30.32,10.0,WNW,13.8,25.3,N/A,,Clear,290,2012-10-13 15:53:00
12:53 PM,42.1,19.0,40,30.31,10.0,WNW,11.5,23.0,N/A,,Partly Cloudy,290,2012-10-13 16:53:00
1:53 PM,45.0,21.0,39,30.30,10.0,WNW,12.7,23.0,N/A,,Partly Cloudy,300,2012-10-13 17:53:00
2:53 PM,45.0,19.9,37,30.31,10.0,NW,13.8,23.0,N/A,,Clear,310,2012-10-13 18:53:00
3:53 PM,45.0,19.0,36,30.30,10.0,WNW,9.2,18.4,N/A,,Clear,290,2012-10-13 19:53:00
4:53 PM,44.1,19.9,38,30.30,10.0,Variable,6.9,-,N/A,,Partly Cloudy,0,2012-10-13 20:53:00
5:53 PM,41.0,21.0,45,30.32,10.0,WNW,6.9,-,N/A,,Clear,290,2012-10-13 21:53:00
6:53 PM,39.9,21.9,49,30.34,10.0,West,4.6,-,N/A,,Clear,280,2012-10-13 22:53:00
8:53 PM,32.0,25.0,75,30.34,10.0,Calm,Calm,-,N/A,,Clear,0,2012-10-14 00:53:00
10:53 PM,33.1,27.0,78,30.30,10.0,Calm,Calm,-,N/A,,Clear,0,2012-10-14 02:53:00